Regional Weather Roundup
Issued by NWS

Home | Current Version | Previous Version | Graphics & Text | Print | Product List | Glossary On
Versions: 1 2 3 4 5 6 7 8 9 10 11 12 13 14 15 16 17 18 19 20 21 22 23 24 25 26 27 28 29 30 31 32 33 34 35 36 37 38 39 40 41 42 43 44 45 46 47 48 49 50
000
ASUS45 KBOU 291907
RWRCO

WEATHER ROUNDUP FOR COLORADO
NATIONAL WEATHER SERVICE DENVER/BOULDER CO
100 PM MDT SUN MAR 29 2015

NOTE: "FAIR" INDICATES FEW OR NO CLOUDS BELOW 12000 FEET WITH NO
SIGNIFICANT WEATHER AND/OR OBSTRUCTIONS TO VISIBILITY.

COZ001>005-013-030-031-292000-
...NORTHWEST COLORADO...

CITY           SKY/WX    TMP DP  RH WIND       PRES   REMARKS
CRAIG          SUNNY     59  17  19 W8        30.31F
HAYDEN         SUNNY     54  10  17 NW3       30.31F
MEEKER         SUNNY     62  15  16 SW9       30.30F
MOUNT WERNER   NOT AVBL
STEAMBOAT SPGS SUNNY     53  19  25 SW7       30.32F
WALDEN         SUNNY     52  10  19 SW3G17    30.32F
$$

COZ006>008-011-292000-
...WEST CENTRAL VALLEYS...

CITY           SKY/WX    TMP DP  RH WIND       PRES   REMARKS
GRAND JUNCTION SUNNY     69   8   9 VRB6      30.22F
MONTROSE       SUNNY     66  15  14 NW6       30.27F
EAGLE          SUNNY     61  10  13 CALM      30.29F
RIFLE          SUNNY     64  11  12 CALM      30.26F
DELTA          SUNNY     70  14  11 CALM      30.24F
NUCLA          SUNNY     68   5   8 CALM      30.30F
$$

COZ017>023-064>068-292000-
...SOUTHWEST COLORADO...

CITY           SKY/WX    TMP DP  RH WIND       PRES   REMARKS
DURANGO        SUNNY     67  20  16 W8        30.26F
CORTEZ         SUNNY     73  16  11 MISG      30.25F
PAGOSA SPRINGS SUNNY     65  12  12 SW8G17    30.30F
TELLURIDE      SUNNY     57   4  12 N5        30.41S
WOLF CREEK PAS SUNNY     43   9  24 SW9G17    30.53F
$$

COZ009-010-012-014-032>034-037-058>063-292000-
...CENTRAL COLORADO...

CITY           SKY/WX    TMP DP  RH WIND       PRES   REMARKS
ASPEN          SUNNY     57  10  15 NE9G17    30.31F
BUENA VISTA    SUNNY     62   1   9 SE12      30.28F
COPPER MTN     SUNNY     41  -6  13 W16G26    30.47S
BERTHOUD PASS  FAIR      32  25  74 NW20G30   30.45F WCI  20
COTTONWOOD PAS SUNNY     55 -20   4 CALM      30.38S
GUNNISON       SUNNY     59  18  20 S5        30.33F
KREMMLING      SUNNY     59  -8   6 NW6G21    30.31F
LEADVILLE      SUNNY     46   3  17 N9G18     30.37F
SALIDA         SUNNY     65   9  11 CALM      30.34F
SUNLIGHT       SUNNY     45  10  24 SW3       30.48F
WILKERSON PASS SUNNY     46   5  18 W3        30.47S
$$

COZ069>075-292000-
...SAN LUIS VALLEY/SANGRE DE CRISTO MOUNTAINS...

CITY           SKY/WX    TMP DP  RH WIND       PRES   REMARKS
ALAMOSA        SUNNY     64  16  15 VRB6      30.29F
LA VETA PASS   SUNNY     45  23  42 NE3       30.43F
SAGUACHE       NOT AVBL
$$

COZ035-036-038>040-292000-
...NORTHERN COLORADO FRONT RANGE...

CITY           SKY/WX    TMP DP  RH WIND       PRES   REMARKS
DENVER INTL AP SUNNY     55  21  26 NE3       30.28F
DMNS CITY PARK   N/A     58  22  25 SE7G13    30.27F
AURORA         NOT AVBL
FRONT RANGE AP SUNNY     55  25  30 E7        30.30F
ERIE MUNI ARPT SUNNY     58  19  22 SE8G16    30.27F
BOULDER MUN AP SUNNY     57  21  24 SE9G22    30.27F
CENTENNIAL     MOSUNNY   53  21  28 E9        30.29F
BROOMFIELD     SUNNY     55  19  24 SE10G20   30.30F
FORT COLLINS   SUNNY     59  21  23 S7        30.28F
LONGMONT       SUNNY     61  23  23 E8        30.29F
$$

COZ041-046-047-076>085-087-088-292000-
...PIKES PEAK/PALMER DIVIDE AND SOUTHERN FOOTHILLS...

CITY           SKY/WX    TMP DP  RH WIND       PRES   REMARKS
COLO. SPRINGS  MOSUNNY   56  20  24 S6        30.31F
A. F. ACADEMY  SUNNY     53  18  25 S6        30.31F
ELLICOTT       SUNNY    N/A N/A N/A NE13G18   30.30F
FALCON         SUNNY     55  19  24 N3        30.34S
FORT CARSON    NOT AVBL
LIMON          SUNNY     56  23  27 NW10G23   30.30F
MONUMENT HILL  SUNNY     48  21  34 N3        30.31F
TRINIDAD       SUNNY     58  20  22 MISG      30.32F
$$

COZ042>045-048>051-090-091-292000-
...NORTHEAST COLORADO...

CITY           SKY/WX    TMP DP  RH WIND       PRES   REMARKS
GREELEY ARPT   SUNNY     61  19  20 E3        30.24F
AKRON          SUNNY     58  23  26 N20G29    30.26F
BURLINGTON     SUNNY     62  20  19 N22G32    30.25F
WRAY           SUNNY     63  22  21 N14G26    30.25F
STERLING       SUNNY     61  27  27 N17G23    30.24F
HOLYOKE        NOT AVBL
FORT MORGAN    SUNNY    N/A N/A N/A NW15      30.27F
$$

COZ086-089-092>099-292000-
...SOUTHEAST COLORADO...

CITY           SKY/WX    TMP DP  RH WIND       PRES   REMARKS
PUEBLO         SUNNY     61  18  18 SE7       30.28F
LA JUNTA       SUNNY     65  20  17 NE9G20    30.28F
LAMAR          PTSUNNY   67  20  16 N18G31    30.24F
SPRINGFIELD      N/A     64  20  18 N17G31    30.26F
$$


USA.gov is the U.S. government's official web portal to all federal, state and local government web resources and services.